Date String (YYYY-MM-DD hh:mm:ss) UTC,Instrument flags,Ambient pressure (hPa),Sample flow (lpm),Bypass flow (lpm),Sample temperature (°C),Ambient temperature (°C),ASC tube jacket temperature (°C),LED temperature (°C),Box temperature (°C),Sample RH (%),Span deviation,Mass concentration (μg/m³),Mass concentration (μg/m³),Mass concentration (μg/m³)
DateTimeUTC,F1_M11,P_M11,Q1_M11,Q2_M11,T1_M11,T2_M11,T3_M11,T4_M11,T5_M11,U1_M11,ZSPAN_M11,X0_M11,X2_M11,X1_M11
2021-09-08 19:00:00,,0832.6,4.99,0.00,29.1,26.9,00.0,38.2,30.8,20.9,0002.2,0053.92,0037.45,0034.81
2021-09-08 19:01:00,,0832.6,5.00,0.00,29.1,27.4,00.0,38.2,30.9,20.7,0002.1,0054.40,0037.42,0034.78
2021-09-08 19:02:00,,0832.6,4.99,0.00,29.1,27.7,00.0,38.2,31.0,20.3,0001.8,0054.69,0037.33,0034.74
2021-09-08 19:03:00,,0832.6,5.00,0.00,29.2,28.0,00.0,38.2,31.1,20.1,0001.6,0055.08,0037.33,0034.75
2021-09-08 19:04:00,,0832.5,5.00,0.00,29.3,28.3,00.0,38.2,31.2,20.1,0001.3,0056.10,0037.39,0034.75
2021-09-08 19:05:00,,0832.6,5.00,0.00,29.3,28.3,00.0,38.2,31.2,20.4,0000.9,0057.72,0037.37,0034.68
2021-09-08 19:06:00,,0832.5,5.00,0.00,29.3,26.9,00.0,38.2,30.8,20.6,0000.7,0059.41,0037.27,0034.52
2021-09-08 19:07:00,,0832.5,4.99,0.00,29.1,25.8,00.0,38.2,30.5,19.8,0000.6,0059.83,0037.10,0034.31
2021-09-08 19:08:00,,0832.5,5.01,0.00,29.1,26.0,00.0,38.2,30.5,20.0,0000.8,0059.61,0036.91,0034.11
2021-09-08 19:09:00,,0832.5,4.99,0.00,29.0,26.5,00.0,38.2,30.6,19.5,0000.9,0059.15,0036.75,0033.94
2021-09-08 19:10:00,,0832.5,5.00,0.00,29.0,26.9,00.0,38.2,30.8,19.6,0000.8,0058.13,0036.53,0033.75
2021-09-08 19:11:00,,0832.5,5.00,0.00,29.1,27.3,00.0,38.1,30.8,19.7,0000.8,0057.74,0036.40,0033.61
2021-09-08 19:12:00,,0832.5,5.00,0.00,29.1,27.7,00.0,38.2,30.9,20.0,0001.0,0058.61,0036.31,0033.50
2021-09-08 19:13:00,,0832.5,5.00,0.00,29.2,28.0,00.0,38.2,31.1,20.3,0001.3,0058.32,0036.18,0033.35
2021-09-08 19:14:00,,0832.4,5.00,0.00,29.2,28.2,00.0,38.2,31.2,20.2,0001.3,0057.84,0036.01,0033.18
2021-09-08 19:15:00,,0832.4,5.01,0.00,29.3,28.4,00.0,38.2,31.2,20.2,0001.4,0056.02,0035.81,0033.00
2021-09-08 19:16:00,,0832.5,5.00,0.00,29.3,27.2,00.0,38.2,30.9,20.3,0001.8,0054.76,0035.71,0032.84
2021-09-08 19:17:00,,0832.5,5.00,0.00,29.1,25.8,00.0,38.2,30.5,20.1,0001.6,0053.11,0035.66,0032.77
2021-09-08 19:18:00,,0832.4,5.00,0.00,29.0,26.0,00.0,38.2,30.5,20.3,0001.5,0052.76,0035.66,0032.73
2021-09-08 19:19:00,,0832.5,5.00,0.00,29.0,26.4,00.0,38.2,30.6,20.3,0001.4,0053.19,0035.69,0032.70
2021-09-08 19:20:00,,0832.4,5.01,0.00,29.0,26.9,00.0,38.1,30.7,19.9,0001.2,0052.98,0035.58,0032.62
2021-09-08 19:21:00,,0832.5,4.99,0.00,29.1,27.3,00.0,38.1,30.8,20.2,0001.2,0052.86,0035.47,0032.54
2021-09-08 19:22:00,,0832.4,4.99,0.00,29.1,27.6,00.0,38.1,30.9,20.1,0001.3,0053.03,0035.49,0032.55
2021-09-08 19:23:00,,0832.4,5.00,0.00,29.2,27.9,00.0,38.1,31.0,19.7,0001.3,0051.59,0035.40,0032.46
2021-09-08 19:24:00,,0832.5,5.00,0.00,29.2,28.2,00.0,38.2,31.1,19.6,0001.5,0051.25,0035.35,0032.40
2021-09-08 19:25:00,,0832.5,4.99,0.00,29.3,28.4,00.0,38.2,31.2,19.9,0001.9,0051.65,0035.27,0032.33
2021-09-08 19:26:00,,0832.4,5.00,0.00,29.3,27.4,00.0,38.2,31.0,20.4,0001.9,0053.19,0035.30,0032.31
2021-09-08 19:27:00,,0832.4,5.01,0.00,29.1,25.9,00.0,38.2,30.5,20.3,0002.0,0053.53,0035.25,0032.29
2021-09-08 19:28:00,,0832.4,4.99,0.00,29.0,25.9,00.0,38.2,30.5,20.5,0002.3,0054.15,0035.13,0032.25
2021-09-08 19:29:00,,0832.4,5.01,0.00,29.0,26.3,00.0,38.1,30.6,20.7,0002.3,0055.08,0035.04,0032.22
2021-09-08 19:30:00,,0832.3,4.99,0.00,29.0,26.7,00.0,38.1,30.7,20.5,0002.0,0055.50,0034.98,0032.22
2021-09-08 19:31:00,,0832.3,5.00,0.00,29.0,27.2,00.0,38.1,30.8,20.4,0002.0,0056.79,0034.97,0032.19
2021-09-08 19:32:00,,0832.3,5.00,0.00,29.1,27.5,00.0,38.1,30.9,20.6,0001.9,0057.00,0034.94,0032.17
2021-09-08 19:33:00,,0832.3,5.00,0.00,29.1,27.9,00.0,38.1,31.0,20.0,0002.0,0057.35,0034.80,0032.08
2021-09-08 19:34:00,,0832.3,5.00,0.00,29.2,28.1,00.0,38.1,31.1,19.4,0001.8,0057.00,0034.71,0032.02
2021-09-08 19:35:00,,0832.3,4.99,0.00,29.3,28.4,00.0,38.2,31.2,19.3,0001.9,0057.24,0034.64,0031.96
2021-09-08 19:36:00,,0832.3,5.00,0.00,29.3,28.3,00.0,38.2,31.2,19.3,0001.5,0056.88,0034.61,0031.91
2021-09-08 19:37:00,,0832.3,5.00,0.00,29.2,26.8,00.0,38.2,30.8,19.1,0001.6,0055.55,0034.48,0031.85
2021-09-08 19:38:00,,0832.2,5.00,0.00,29.1,25.7,00.0,38.2,30.5,19.2,0001.5,0055.22,0034.49,0031.88
2021-09-08 19:39:00,,0832.2,5.00,0.00,29.0,26.0,00.0,38.2,30.5,19.3,0001.6,0054.90,0034.63,0031.97
2021-09-08 19:40:00,,0832.2,5.01,0.00,29.0,26.4,00.0,38.1,30.6,19.4,0001.7,0054.26,0034.64,0032.05
2021-09-08 19:41:00,,0832.3,5.00,0.00,29.0,26.9,00.0,38.1,30.7,19.2,0001.8,0053.31,0034.65,0032.12
2021-09-08 19:42:00,,0832.2,5.00,0.00,29.0,27.3,00.0,38.1,30.8,19.2,0001.8,0051.97,0034.69,0032.16
2021-09-08 19:43:00,,0832.2,5.00,0.00,29.1,27.7,00.0,38.1,30.9,19.2,0002.1,0053.21,0034.77,0032.23
2021-09-08 19:44:00,,0832.2,5.01,0.00,29.2,28.0,00.0,38.1,31.1,19.2,0002.1,0054.03,0034.85,0032.31
2021-09-08 19:45:00,,0832.1,5.00,0.00,29.2,28.2,00.0,38.1,31.1,19.4,0002.3,0054.01,0034.93,0032.38
2021-09-08 19:46:00,,0832.2,5.01,0.00,29.3,28.3,00.0,38.2,31.2,19.3,0002.1,0053.45,0035.00,0032.44
2021-09-08 19:47:00,,0832.1,5.00,0.00,29.2,27.0,00.0,38.2,30.8,19.0,0002.1,0052.93,0035.09,0032.51
2021-09-08 19:48:00,,0832.2,5.01,0.00,29.1,25.7,00.0,38.1,30.4,19.6,0002.6,0052.60,0035.17,0032.56
2021-09-08 19:49:00,,0832.1,4.99,0.00,29.0,25.9,00.0,38.1,30.5,19.6,0002.6,0052.63,0035.16,0032.54
2021-09-08 19:50:00,,0832.1,5.00,0.00,29.0,26.3,00.0,38.1,30.6,19.3,0002.4,0052.00,0035.06,0032.49
2021-09-08 19:51:00,,0832.1,5.00,0.00,29.0,26.7,00.0,38.1,30.7,19.2,0002.6,0052.10,0035.02,0032.43
2021-09-08 19:52:00,,0832.1,5.00,0.00,29.0,27.2,00.0,38.1,30.8,19.1,0002.8,0052.98,0034.97,0032.32
2021-09-08 19:53:00,,0832.1,5.00,0.00,29.1,27.6,00.0,38.1,30.9,18.9,0002.9,0053.33,0034.88,0032.24
2021-09-08 19:54:00,,0832.1,5.00,0.00,29.1,27.9,00.0,38.1,31.0,18.9,0003.1,0052.17,0034.82,0032.16
2021-09-08 19:55:00,,0832.1,5.00,0.00,29.2,28.2,00.0,38.1,31.1,19.1,0003.0,0050.67,0034.77,0032.11
2021-09-08 19:56:00,,0832.1,5.00,0.00,29.2,27.8,00.0,38.1,31.0,18.4,0003.2,0050.43,0034.77,0032.09
2021-09-08 19:57:00,,0832.1,5.00,0.00,29.1,26.2,00.0,38.1,30.5,18.6,0003.1,0051.56,0034.78,0032.13
2021-09-08 19:58:00,,0832.1,5.00,0.00,29.0,25.6,00.0,38.1,30.3,18.5,0003.0,0051.77,0034.68,0032.08
2021-09-08 19:59:00,,0832.1,5.00,0.00,28.9,26.0,00.0,38.1,30.4,18.6,0002.7,0052.66,0034.71,0032.09
